Erie, PA

12:25 PM EST on November 22, 2019 (GMT -0500)
Erie International

Weather History for KERI - September, 2019

Change the Weather History Date:

Friday, September 20, 2019

  Actual Average Record
Temperature  
Mean Temperature 71 °F 62 °F  
Max Temperature 82 °F 70 °F 90 °F (1925)
Min Temperature 59 °F 54 °F 39 °F (1973)
Degree Days  
Heating Degree Days 0 4  
Month to date heating degree days 8 45  
Since 1 July heating degree days 9 63  
Cooling Degree Days 6 2  
Month to date cooling degree days 84 59  
Year to date cooling degree days 774 617  
Growing Degree Days 21 (Base 50)    
Moisture  
Dew Point 55 °F    
Average Humidity 60    
Maximum Humidity 73    
Minimum Humidity 42    
Precipitation  
Precipitation 0.00 in 0.17 in 1.06 in (2006)
Month to date precipitation 3.12 2.93  
Year to date precipitation 29.44 28.76  
Snow  
Snow 0.00 in 0.00 in - ()
Month to date snowfall 0.0 0.0  
Since 1 July snowfall 0.0 0.0  
Since 1 September snowfall 0.0 0.0  
Snow Depth 0.00 in    
Sea Level Pressure  
Sea Level Pressure 30.18 in    
Wind  
Wind Speed 9 mph ()    
Max Wind Speed 16 mph    
Max Gust Speed 23 mph    
Visibility 10.0 miles    
Events      
T = Trace of Precipitation, MM = Missing Value Source: Averaged Metar Reports

Daily Weather History Graph

Daily Weather History Graph

Search for Another Location

Airport or City:

Astronomy

Sep. 20, 2019 Rise Set
Actual Time 7:05 AM EDT 7:21 PM EDT
Civil Twilight 6:37 AM EDT 7:49 PM EDT
Nautical Twilight 6:04 AM EDT 8:22 PM EDT
Astronomical Twilight 5:31 AM EDT 8:56 PM EDT
Moon 11:04 PM EDT (9/20) 1:14 PM EDT (9/20)
Length of Visible Light 13h 11m
Length of Day
12h 16m
Waning Gibbous, 65% of the Moon is Illuminated
Sep 20
Waning Gibbous
Sep 21
Last Quarter
Sep 28
New
Oct 5
First Quarter
Oct 13
Full

Hourly Weather History & Observations

Time (EDT) Temp. Heat Index Dew Point Humidity Pressure Visibility Wind Dir Wind Speed Gust Speed Precip Events Conditions
12:51 AM 64.0 °F - 48.9 °F 58% 30.17 in 10.0 mi SSE 13.8 mph - N/A   Clear
1:51 AM 63.0 °F - 48.0 °F 58% 30.17 in 10.0 mi SSE 12.7 mph 21.9 mph N/A   Clear
2:51 AM 62.1 °F - 48.0 °F 60% 30.16 in 10.0 mi SSE 12.7 mph - N/A   Clear
3:51 AM 62.1 °F - 48.0 °F 60% 30.17 in 10.0 mi South 12.7 mph - N/A   Clear
4:51 AM 61.0 °F - 48.0 °F 62% 30.18 in 10.0 mi South 12.7 mph - N/A   Clear
5:51 AM 60.1 °F - 48.0 °F 64% 30.19 in 10.0 mi South 15.0 mph 21.9 mph N/A   Clear
6:51 AM 60.1 °F - 48.0 °F 64% 30.20 in 10.0 mi South 12.7 mph - N/A   Clear
7:51 AM 60.1 °F - 48.0 °F 64% 30.20 in 10.0 mi South 13.8 mph - N/A   Clear
8:51 AM 63.0 °F - 50.0 °F 63% 30.21 in 10.0 mi South 11.5 mph - N/A   Clear
9:51 AM 66.9 °F - 52.0 °F 59% 30.22 in 10.0 mi South 10.4 mph - N/A   Clear
10:51 AM 72.0 °F - 54.0 °F 53% 30.22 in 10.0 mi South 8.1 mph - N/A   Clear
11:51 AM 77.0 °F - 57.0 °F 50% 30.19 in 10.0 mi SSE 6.9 mph - N/A   Clear
12:51 PM 81.0 °F 81.1 °F 57.9 °F 45% 30.19 in 10.0 mi South 9.2 mph - N/A   Clear
1:51 PM 82.0 °F 81.7 °F 57.0 °F 42% 30.17 in 10.0 mi SSE 5.8 mph - N/A   Clear
2:51 PM 79.0 °F - 60.1 °F 52% 30.16 in 10.0 mi North 6.9 mph - N/A   Clear
3:27 PM 77.0 °F - 61.0 °F 58% 30.16 in 10.0 mi North 10.4 mph - N/A   Clear
3:51 PM 78.1 °F - 62.1 °F 58% 30.15 in 10.0 mi NNE 4.6 mph - N/A   Clear
4:51 PM 79.0 °F - 64.9 °F 62% 30.14 in 10.0 mi North 4.6 mph - N/A   Clear
5:51 PM 78.1 °F - 59.0 °F 52% 30.16 in 10.0 mi NNE 8.1 mph - N/A   Clear
6:51 PM 75.0 °F - 60.1 °F 60% 30.16 in 10.0 mi ENE 4.6 mph - N/A   Clear
7:51 PM 72.0 °F - 61.0 °F 68% 30.17 in 10.0 mi Calm Calm - N/A   Clear
8:51 PM 70.0 °F - 61.0 °F 73% 30.18 in 10.0 mi South 3.5 mph - N/A   Clear
9:51 PM 69.1 °F - 57.9 °F 68% 30.18 in 10.0 mi Calm Calm - N/A   Clear
10:51 PM 68.0 °F - 55.9 °F 65% 30.18 in 10.0 mi Calm Calm - N/A   Clear
11:51 PM 66.0 °F - 55.9 °F 70% 30.18 in 10.0 mi SSE 4.6 mph - N/A   Clear